Vorticity
nan nan nan nan nan nan nan nan nan nan nan nan nan nan nan nan nan nan nan nan nan nan nan nan nan nan nan nan nan nan nan nan nan nan nan nan nan nan nan nan nan nan nan
nan 8 5 4 5 3 3 6 6 5 3 3 3 3 4 7 5 5 6 6 6 9 7 5 4 4 6 7 7 7 6 5 4 1 -1 -1 3 5 3 5 7 6 nan
nan 8 8 4 5 3 8 5 2 2 2 3 3 3 4 4 3 6 6 6 6 6 7 7 7 7 5 4 6 6 6 4 4 3 -3 -1 2 4 6 5 5 4 nan
nan 5 9 5 6 5 6 3 2 2 5 5 3 5 5 5 5 4 6 5 5 6 5 6 7 8 6 5 6 4 4 3 2 4 8 5 3 5 5 5 5 6 nan
nan 7 9 6 4 5 3 3 3 4 5 6 8 5 6 6 4 4 7 3 3 3 3 5 7 7 7 8 6 5 4 3 3 9 9 7 8 5 4 7 6 2 nan
nan 9 5 5 2 5 5 5 5 5 5 6 6 6 6 6 4 7 5 2 3 3 4 3 4 5 9 12 8 5 4 2 3 13 9 5 7 4 4 6 6 5 nan
nan 8 8 5 4 6 5 5 5 5 6 5 5 6 6 4 4 6 5 5 5 5 4 3 4 8 8 10 12 7 3 3 6 6 5 5 6 5 5 5 5 5 nan
nan 7 8 7 5 4 6 5 5 6 7 5 5 5 6 6 5 5 5 6 5 6 5 4 4 9 12 11 10 6 4 4 6 5 3 6 8 8 6 5 5 6 nan
nan 7 6 9 6 7 5 4 6 7 6 5 5 5 5 5 5 5 5 6 6 6 6 6 5 6 8 12 11 5 3 4 7 7 6 6 6 11 10 10 11 7 nan
nan 3 7 7 7 8 7 10 4 5 6 6 5 5 6 6 8 8 10 7 4 5 6 6 6 4 5 8 8 5 3 6 8 6 8 7 5 4 8 10 11 12 nan
nan 9 9 3 8 8 8 12 9 6 5 7 7 9 4 9 11 6 8 6 3 4 5 5 7 5 5 6 5 4 3 5 10 6 10 8 5 3 3 3 5 8 nan
nan 8 8 6 6 6 12 8 10 13 11 9 10 8 4 6 4 5 7 8 5 6 7 7 7 8 7 10 8 1 5 6 4 6 11 8 4 4 4 4 5 6 nan
nan 9 10 12 13 11 8 8 8 7 8 4 9 13 10 7 8 8 6 6 10 8 7 10 6 7 7 5 5 7 7 9 8 8 7 7 5 5 4 4 4 6 nan
nan 8 9 12 13 17 15 8 9 8 8 8 8 9 13 12 9 6 6 6 8 9 8 5 7 8 7 6 8 7 6 7 6 8 12 8 4 6 5 5 5 5 nan
nan 7 8 9 10 13 14 12 9 9 9 8 9 8 10 9 7 11 12 8 6 7 7 8 8 8 7 8 8 6 7 8 6 6 9 9 5 7 6 5 6 5 nan
nan 6 7 7 9 10 9 10 10 10 9 8 8 7 8 9 8 9 9 10 10 8 7 8 8 7 8 9 7 7 8 7 8 6 7 8 8 7 7 6 5 6 nan
nan 5 6 6 7 7 7 8 8 7 7 9 9 8 9 9 8 7 9 8 5 6 11 13 9 8 9 9 9 10 9 8 8 8 6 7 9 9 9 7 6 6 nan
nan 5 5 5 5 6 8 9 7 6 7 7 6 5 5 6 9 12 10 8 9 8 8 10 10 10 8 9 10 8 8 10 8 8 6 7 6 11 12 10 7 7 nan
nan 5 5 5 5 7 7 7 6 8 9 8 7 5 4 7 7 9 9 10 11 7 7 10 8 8 8 10 7 7 10 9 10 10 8 6 6 7 13 14 9 8 nan
nan 6 5 4 5 8 8 7 7 7 7 6 7 4 7 8 7 8 8 7 8 11 9 5 7 9 11 8 9 10 8 6 7 9 10 9 8 6 6 9 11 12 nan
nan 4 5 5 6 8 8 6 7 6 7 7 6 5 7 6 8 9 8 8 8 8 7 9 10 7 8 12 11 9 9 11 10 5 9 9 9 9 7 5 6 9 nan
nan 4 3 4 6 8 7 7 6 6 7 8 7 7 6 6 7 7 7 8 8 8 8 10 10 8 8 9 10 13 13 14 12 10 7 9 8 8 10 9 5 5 nan
nan 4 5 5 4 6 8 8 6 8 8 8 8 8 6 5 5 7 8 8 8 8 8 9 9 9 10 6 9 9 10 10 15 18 10 8 9 7 9 10 9 8 nan
nan 8 6 4 5 5 6 6 8 9 8 9 9 6 6 8 7 8 8 8 8 9 8 8 8 9 9 8 9 7 5 5 5 8 15 15 12 9 7 9 11 10 nan
nan 8 8 7 5 5 7 9 10 8 8 8 6 7 10 11 11 9 9 9 9 8 7 7 8 9 8 10 10 9 10 8 7 4 5 8 7 14 12 9 9 11 nan
nan nan nan nan nan nan nan nan nan nan nan nan nan nan nan nan nan nan nan nan nan nan nan nan nan nan nan nan nan nan nan nan nan nan nan nan nan nan nan nan nan nan nan
CAPE
124 629 1268 1210 1570 1505 1172 1644 1126 1063 1444 897 518 421 556 534 1156 1163 1198 1278 1444 1415 1341 1154 1278 1463 1539 1495 1540 1643 1545 1648 1840 1656 1343 1395 1419 1102 1043 1338 674 151 153
71 263 1458 1260 1351 1445 1374 1314 961 1342 750 334 205 421 823 1045 548 657 1198 1195 1299 1373 1361 1120 1037 993 1225 1348 1528 1696 1656 1689 1522 1215 1474 1353 1613 1471 1172 901 989 213 132
36 431 1017 1205 790 1029 1330 1308 500 921 542 176 107 218 372 595 384 891 821 922 1046 1367 1397 963 1085 1325 702 1496 1625 1640 1544 1508 1432 1464 1582 1268 1227 1325 1201 1047 760 385 214
20 211 938 1223 1237 849 1471 869 534 96 361 506 69 164 199 323 157 480 251 1090 1245 1051 1231 1374 1324 1470 1453 1600 1525 1482 1497 1231 922 1165 1200 928 975 1182 1088 1173 868 684 392
19 96 1322 1517 1280 864 496 362 164 227 667 773 128 329 71 115 78 382 351 460 606 735 823 895 1315 1344 1393 1499 1417 1444 1384 1170 1145 1251 1272 1335 1253 1165 991 1110 962 740 473
37 98 1305 1386 1139 655 389 314 282 833 720 608 333 42 58 145 84 256 132 146 103 362 313 649 866 1240 1395 1389 1306 1310 1214 1103 1342 379 1328 1073 1061 1069 938 937 935 707 604
48 135 449 1010 907 756 751 541 435 616 777 470 78 1 14 56 4 47 48 33 53 43 78 208 565 837 1162 1291 1398 1363 1233 1043 1037 191 59 508 855 846 783 873 937 863 592
56 57 620 1168 1214 1325 1060 722 536 781 857 376 49 4 2 22 5 0 0 21 41 6 0 43 267 1198 1156 1188 1286 1342 1008 867 521 78 32 139 623 763 758 633 685 769 774
191 272 272 810 1577 1942 1692 1251 512 948 1039 426 148 64 6 0 1 0 0 0 0 0 0 0 13 596 925 1294 1334 1310 654 501 394 140 17 262 1266 873 774 632 577 641 838
615 526 343 316 640 1693 1613 2115 1374 865 1262 737 447 277 109 3 0 0 0 0 0 0 0 0 0 94 134 326 1284 888 341 170 209 151 94 146 280 310 602 970 850 834 774
466 666 603 412 402 1262 1540 1867 1884 1465 1562 1155 726 577 284 108 37 0 2 0 0 0 0 0 0 0 0 10 441 554 392 498 424 62 17 202 0 0 7 206 361 535 761
0 0 0 0 182 961 1330 1489 1468 1501 1576 1484 1036 845 667 117 44 0 0 0 0 0 0 0 0 0 0 0 238 213 15 107 290 150 82 124 0 0 0 0 40 243 497
0 0 0 0 0 0 1135 1881 2666 1895 2118 1605 1313 944 744 430 152 9 0 0 0 0 0 0 0 0 0 0 0 0 0 0 1 3 25 7 0 0 0 0 0 43 254
0 0 0 0 0 2 17 1686 1696 1418 1507 1662 1606 1325 1221 1072 725 278 4 0 0 0 0 0 0 0 0 0 0 0 0 0 0 1 35 105 0 0 0 0 0 0 12
0 0 0 0 0 0 1 504 770 602 689 726 738 742 568 1310 1121 894 620 86 0 0 0 0 0 0 0 0 0 0 0 0 0 0 10 8 0 0 0 0 0 0 0
0 0 0 0 0 0 0 0 0 0 58 46 15 7 0 1 198 531 774 887 421 10 0 0 0 0 0 0 0 0 0 0 0 0 0 0 0 0 0 0 0 0 1
0 0 0 0 0 0 0 0 0 0 0 0 0 0 0 0 0 2 34 162 267 288 49 0 0 0 0 0 0 0 0 0 0 0 0 0 0 0 0 0 0 0 0
0 0 0 0 0 0 0 0 0 0 0 0 0 0 0 0 0 0 1 17 56 42 42 15 0 0 0 0 0 0 0 0 0 0 0 0 0 0 0 0 0 0 0
0 0 0 0 0 0 0 0 0 0 0 0 0 0 0 0 0 0 0 0 7 47 17 4 24 0 0 0 0 0 0 0 0 0 0 0 0 0 0 0 0 0 0
0 0 0 0 0 0 0 0 0 0 0 0 0 0 0 0 0 0 0 0 0 0 20 30 10 0 6 0 0 0 0 0 0 0 0 0 0 0 0 0 0 0 0
0 0 0 0 0 0 0 0 0 0 0 0 0 0 0 0 0 0 0 0 0 0 0 1 21 30 0 14 0 0 0 0 0 0 0 0 0 0 0 0 0 0 0
0 0 0 0 0 0 0 0 0 0 0 0 0 0 0 0 0 0 0 0 0 0 0 0 0 7 7 0 7 4 0 0 0 0 0 0 0 0 0 0 0 0 0
0 0 0 0 0 0 0 0 0 0 0 0 0 0 0 0 0 0 0 0 0 0 0 0 0 6 16 16 0 0 1 0 0 0 0 0 0 0 0 0 0 0 0
0 0 0 0 0 0 0 0 0 0 0 0 0 0 0 0 0 0 0 0 0 0 0 0 0 0 13 14 13 0 0 0 0 0 0 0 0 0 0 0 0 0 0
0 0 0 0 0 0 0 0 0 0 0 0 0 0 0 0 0 0 0 0 0 0 0 0 0 0 0 0 26 20 14 0 0 0 0 0 0 0 0 0 0 0 0
0 0 0 0 0 0 0 0 0 0 0 0 0 0 0 0 0 0 0 0 1 2 0 0 0 0 0 1 7 32 40 15 0 0 0 0 0 0 0 0 0 0 0